Flag for U.S.A. Weather past 2 weeks in Grand Rapids, Michigan, U.S.A.

Now
63 °F

Sunny.


Feels Like: 63 °F
Forecast: 52 / 77 °F
Wind: 7 mph from East

Location: Kent County International Airport

Current Time: Jul 2, 2015 at 10:40:15 PM

Latest Report: Jul 2, 2015 at 9:53 PM


Visibility: 10 mi

Pressure: 30.00 "Hg

Humidity: 65%

Dew point: 51 °F

Location of Grand RapidsLocation

Historic Weather in Grand Rapids — Graph

°F

Grand Rapids temperature yesterday

Maximum temperature yesterday: 68 °F (at 2:53 PM)
Minimum temperature yesterday: 56 °F (at 5:53 AM)
Average temperature yesterday: 61 °F

Past Weeks' High & Low Weather Summary

 TemperatureHumidityPressure
High83 °F (Jun 22, 6:53 PM)100% (Jun 17, 11:53 PM)30.17 "Hg (Jun 17, 11:53 PM)
Low52 °F (Jun 20, 4:53 AM)35% (Jun 28, 5:53 PM)29.67 "Hg (Jun 22, 11:53 PM)
Average67 °F73%29.94 "Hg
* Reported Jun 17 8:53 PM — Jul 2 8:53 PM, Grand Rapids, Weather by CustomWeather, © 2015

Note: Actual official high and low records may vary slightly from our data, if they occured in-between our weather recording intervals... More about our weather records

Advertising

Grand Rapids weather history for previous 24 hours

 ConditionsComfort  
Time TempWeatherWind HumidityBarometerVisibility
8:53 PM
Thu, Jul 2
66 °FSunny.7 mph63%29.98 "Hg10 mi
7:53 PM69 °FPassing clouds.8 mph55%29.99 "Hg10 mi
6:53 PM72 °FPassing clouds.9 mph49%29.98 "Hg10 mi
5:53 PM72 °FScattered clouds.7 mph48%29.99 "Hg10 mi
4:53 PM73 °FScattered clouds.9 mph46%29.99 "Hg10 mi
3:53 PM73 °FBroken clouds.10 mph50%30.00 "Hg10 mi
2:53 PM72 °FPartly sunny.N/A52%30.01 "Hg10 mi
1:53 PM71 °FScattered clouds.5 mph53%30.01 "Hg10 mi
12:53 PM69 °FBroken clouds.9 mph63%30.01 "Hg10 mi
11:53 AM66 °FPartly sunny.8 mph70%30.02 "Hg10 mi
10:53 AM66 °FScattered clouds.13 mph68%30.03 "Hg10 mi
9:53 AM63 °FScattered clouds.9 mph75%30.03 "Hg10 mi
8:53 AM58 °FPassing clouds.7 mph90%30.02 "Hg10 mi
7:53 AM55 °FScattered clouds.7 mph90%30.00 "Hg10 mi
6:53 AM53 °FPassing clouds.8 mph93%29.99 "Hg10 mi
5:53 AM53 °FPassing clouds.3 mph93%30.00 "Hg10 mi
4:53 AM53 °FClear.3 mph93%29.99 "Hg10 mi
3:53 AM54 °FClear.No wind93%29.99 "Hg10 mi
2:53 AM53 °FClear.3 mph96%29.99 "Hg10 mi
1:53 AM54 °FClear.5 mph93%29.99 "Hg10 mi
12:53 AM55 °FClear.6 mph93%29.99 "Hg10 mi
11:53 PM
Wed, Jul 1
57 °FClear.3 mph90%29.99 "Hg10 mi
10:53 PM59 °FPassing clouds.6 mph84%29.99 "Hg10 mi
Weather by CustomWeather, © 2015

See weather overviewHow to use our weather pages